GLONASS-K 2

Last updated on Sat Jun 27 2026 00:02:55 GMT+0000 (Coordinated Universal Time)

1 40315U 14075A 26177.21663207 .00000105 00000+0 00000+0 0 9994 2 40315 63.6151 190.0588 0022237 210.4369 149.4832 2.13109644 90043
UTC large
Height (km)
Speed (km/s)
/
Latitude / Longitude
Inclination (degrees)
Orbital Period (minutes)
Azimuth
Elevation
Range (km)
Doppler Factor

Next 0 passes for location: London (51.5072 / 0.1276)

No passes found over London.
GLONASS-K 2